SCP
0 0 0 0 0 0 0 0 0 0 0 0 0 0 0 0 0 0 0 0 0 0 0 0 0 0 0 0 0 0 0 0 0 0 0 0 0 0 0 0 0 0 0 0 0 0 0 0 0
0 0 0 0 0 0 0 0 0 0 0 0 0 0 0 0 0 0 0 0 0 0 0 0 0 0 0 0 0 0 0 0 0 0 0 0 0 0 0 0 0 0 0 0 0 0 0 0 0
0 0 0 0 0 0 0 0 0 0 0 0 0 0 0 0 0 0 0 0 0 0 0 0 0 0 0 0 0 0 0 0 0 0 0 0 0 0 0 0 0 0 0 0 0 0 0 0 0
0 0 0 0 0 0 0 0 0 0 0 0 0 0 0 0 0 0 0 0 0 0 0 0 0 0 0 0 0 0 0 0 0 0 0 0 0 0 0 0 0 0 0 0 0 0 0 0 0
0 0 0 0 0 0 0 0 0 0 0 0 0 0 0 0 0 0 0 0 0 0 0 0 0 0 0 0 0 0 0 0 0 0 0 0 0 0 0 0 0 0 0 0 0 0 0 0 0
0 0 0 0 0 0 0 0 0 0 0 0 0 0 0 0 0 0 0 0 0 0 0 0 0 0 0 0 0 0 0 0 0 0 0 0 0 0 0 0 0 0 0 0 0 0 0 0 0
0 0 0 0 0 0 0 0 0 0 0 0 0 0 0 0 0 0 0 0 0 0 0 0 0 0 0 0 0 0 0 0 0 0 0 0 0 0 0 0 0 0 0 0 0 0 0 0 0
0 0 0 0 0 0 0 0 0 0 0 0 0 0 0 0 0 0 0 0 0 0 0 0 0 0 0 0 0 0 0 0 0 0 0 0 0 0 0 0 0 0 0 0 0 0 0 0 0
0 0 0 0 0 0 0 0 0 0 0 0 0 0 0 0 0 0 0 0 0 0 0 0 0 0 0 0 0 0 0 0 0 0 0 0 0 0 0 0 0 0 0 0 0 0 0 0 0
0 0 0 0 0 0 0 0 0 0 0 0 0 0 0 0 0 0 0 0 0 0 0 0 0 0 0 0 0 0 0 0 0 0 0 0 0 0 0 0 0 0 0 0 0 0 0 0 0
0 0 0 0 0 0 0 0 0 0 0 0 0 0 0 0 0 0 0 0 0 0 0 0 0 0 0 0 0 0 0 0 0 0 0 0 0 0 0 0 0 0 0 0 0 0 0 0 0
0 0 0 0 0 0 0 0 0 0 0 0 0 0 0 0 0 0 0 0 0 0 0 0 0 0 0 0 0 0 0 0 0 0 0 0 0 0 0 -0 -0 0 0 0 0 0 0 0 0
0 0 0 0 0 0 0 0 0 0 0 0 0 0 0 0 0 0 0 0 0 0 0 0 0 0 0 0 0 0 0 0 0 0 0 0 0 0 0 0 -0 -0 -0 0 0 0 0 0 0
0 0 0 0 0 0 0 0 0 0 0 0 0 0 0 0 0 0 0 0 0 0 0 0 0 0 0 0 0 0 0 0 0 0 0 0 0 0 0 0 0 -0 -0 0 0 0 0 0 0
0 0 0 0 0 0 0 0 0 0 0 0 0 0 0 0 0 0 0 0 0 0 0 0 0 0 0 0 0 0 0 0 0 0 0 0 0 0 0 0 0 0 0 0 0 0 0 0 0
0 0 0 0 0 0 0 0 0 0 0 0 0 0 0 0 0 0 0 0 0 0 0 0 0 0 0 0 0 0 0 0 0 0 0 0 0 0 0 0 0 0 0 0 0 0 0 0 0
0 0 0 0 0 0 0 0 0 0 0 0 0 0 0 0 0 0 0 0 0 0 0 0 0 0 0 0 0 0 0 0 0 0 0 0 0 0 0 0 0 0 0 0 0 0 0 0 0
0 0 0 0 0 0 0 0 0 0 0 0 0 0 0 0 0 0 0 0 0 0 0 0 0 0 0 0 0 0 0 0 0 0 0 0 0 0 0 0 0 0 0 0 0 0 0 0 0
0 0 0 0 0 0 0 0 0 0 0 0 0 0 0 0 0 0 0 0 0 0 0 0 0 0 0 0 0 0 0 0 0 0 0 0 0 0 0 0 0 0 0 0 0 0 0 0 0
0 0 0 0 0 0 0 0 0 0 0 0 0 0 0 0 0 0 0 0 0 0 0 0 0 0 0 0 0 0 0 0 0 0 0 0 0 0 0 0 0 0 0 0 0 0 0 0 0
0 0 0 0 0 0 0 0 0 0 0 0 0 0 0 0 0 0 0 0 0 0 0 0 0 0 0 0 0 0 0 0 0 0 0 0 0 0 0 0 0 0 0 0 0 0 0 0 0
0 0 0 0 0 0 0 0 0 0 0 0 0 0 0 0 0 0 0 0 0 0 0 0 0 0 0 0 0 0 0 0 0 0 0 0 0 0 0 0 0 0 0 0 0 0 0 0 0
0 0 0 0 0 0 0 0 0 0 0 0 0 0 0 0 0 0 0 0 0 0 0 0 0 0 0 0 0 0 0 0 0 0 0 0 0 0 0 0 0 0 0 0 0 0 0 0 0
0 0 0 0 0 0 0 0 0 0 0 0 0 0 0 0 0 0 0 0 0 0 0 0 0 0 0 0 0 0 0 0 0 0 0 0 0 0 0 0 0 0 0 0 0 0 0 0 0
0 0 0 0 0 0 0 0 0 0 0 0 0 0 0 0 0 0 0 0 0 0 0 0 0 0 0 0 0 0 0 0 0 0 0 0 0 0 0 0 0 0 0 0 0 0 0 0 0
0 0 0 0 0 0 0 0 0 0 0 0 0 0 0 0 0 0 0 0 0 0 0 0 0 0 0 0 0 0 0 0 0 0 0 0 0 0 0 0 0 0 0 0 0 0 0 0 0
0 0 0 0 0 0 0 0 0 0 0 0 0 0 0 0 0 0 0 0 0 0 0 0 0 0 0 0 0 0 0 0 0 0 0 0 0 0 0 0 0 0 0 0 0 0 0 0 0
0 0 0 0 0 0 0 0 0 0 0 0 0 0 0 0 0 0 0 0 0 0 0 0 0 0 0 0 0 0 0 0 0 0 0 0 0 0 0 0 0 0 0 0 0 0 0 0 0
0 0 0 0 0 0 0 0 0 0 0 0 0 0 0 0 0 0 0 0 0 0 0 0 0 0 0 0 0 0 0 0 0 0 0 0 0 0 0 0 0 0 0 0 0 0 0 0 0
0 0 0 0 0 0 0 0 0 0 0 0 0 0 0 0 0 0 0 0 0 0 0 0 0 0 0 0 0 0 0 0 0 0 0 0 0 0 0 0 0 0 0 0 0 0 0 0 0
Wind_Speed
1 3 3 4 6 5 2 1 0 1 2 2 3 5 6 4 2 2 0 2 3 2 1 2 4 6 7 7 7 7 7 7 7 8 8 9 9 9 9 9 9 9 9 9 9 8 9 9 8
2 3 4 5 6 3 1 1 1 1 3 3 4 4 5 4 3 3 1 2 3 3 2 2 5 6 6 6 6 7 7 7 7 7 8 8 8 8 8 9 9 9 9 9 8 8 9 9 8
2 3 4 5 4 3 2 1 2 2 2 2 3 4 4 3 3 3 2 4 3 3 2 2 5 6 6 6 6 6 7 7 7 8 8 8 8 8 8 8 8 8 8 8 8 8 8 8 8
3 4 5 5 3 1 1 2 2 2 3 4 4 4 3 2 2 3 5 4 4 3 2 2 5 6 6 6 6 6 6 7 7 7 7 7 7 7 8 8 8 8 7 7 7 7 7 7 8
4 4 5 4 2 1 1 0 2 2 2 3 3 4 2 3 4 6 5 4 4 2 2 2 5 6 6 6 6 6 6 7 7 7 6 7 7 7 7 7 7 7 7 7 7 7 7 7 7
5 5 5 2 1 2 2 1 2 3 3 3 4 4 2 2 4 5 4 4 3 3 2 2 5 6 5 6 6 6 7 7 7 7 7 7 6 6 6 6 7 7 7 7 7 7 7 7 7
4 4 3 2 1 1 1 1 2 3 3 2 3 4 1 1 3 5 4 4 4 3 3 3 3 3 5 6 6 6 7 7 7 7 7 7 7 6 7 6 6 6 6 6 7 7 8 8 8
4 5 3 1 2 0 1 2 2 2 2 2 3 5 3 3 4 5 5 4 3 3 3 3 3 3 3 3 5 6 6 7 7 7 7 7 7 7 7 6 6 6 6 7 8 8 9 8 8
4 5 2 2 3 1 1 2 2 2 4 3 2 2 2 7 7 6 5 3 2 2 2 2 2 3 3 3 4 5 6 6 6 6 8 7 5 5 5 6 7 7 8 9 9 9 9 9 8
4 3 2 2 3 3 2 3 2 3 3 2 3 4 6 7 7 6 5 3 2 1 1 1 2 2 2 2 3 3 3 4 4 4 4 3 4 4 5 7 8 8 9 9 9 9 8 6 4
3 3 2 1 2 3 3 2 2 5 1 2 4 5 7 6 5 5 4 3 2 1 1 1 1 2 2 2 2 2 2 2 3 3 3 3 3 3 4 3 4 5 6 5 6 6 4 4 3
3 1 2 2 2 3 3 3 2 2 3 3 5 7 7 7 5 5 4 3 2 2 1 1 1 2 1 1 1 1 1 1 1 2 2 2 2 2 2 2 3 3 2 3 3 3 3 4 4
2 1 1 2 3 3 4 3 2 0 1 4 6 7 6 6 4 3 3 3 2 2 1 1 2 2 1 1 1 2 1 1 1 1 1 2 2 2 2 2 2 2 2 3 3 3 3 3 3
2 2 1 1 2 2 4 1 2 1 3 6 7 6 5 5 4 3 3 3 2 2 2 1 2 2 2 1 1 1 1 1 1 1 2 2 2 2 2 2 2 2 2 2 2 3 3 2 2
3 3 3 1 1 1 4 2 1 1 5 5 4 4 4 3 3 3 4 4 3 2 2 1 2 2 2 1 1 1 1 1 1 1 2 2 2 2 2 2 2 2 2 2 2 3 3 3 3
3 3 1 3 0 1 4 2 4 2 6 4 3 3 3 3 3 3 3 3 3 2 2 2 2 2 2 2 1 1 2 2 1 1 1 2 2 3 2 2 2 2 2 2 2 2 3 3 3
3 1 1 3 1 2 3 3 3 2 5 4 3 3 3 2 2 3 3 3 3 3 3 2 2 2 2 2 2 2 2 2 1 1 1 2 2 3 3 2 1 2 2 2 2 2 2 2 2
2 2 1 2 1 2 2 4 2 1 4 4 4 3 4 4 5 4 3 3 3 3 3 2 2 2 2 2 2 2 2 2 1 1 1 2 2 3 3 2 2 2 2 2 2 2 2 1 1
3 2 2 4 2 2 3 4 4 3 3 4 4 4 5 6 4 3 3 3 3 3 3 3 3 2 2 2 2 1 1 1 1 1 1 2 2 2 2 2 2 2 2 1 1 1 2 2 1
3 2 2 3 0 2 2 5 5 3 6 7 7 7 7 5 3 3 3 4 4 4 4 3 3 3 3 2 2 1 1 1 1 1 2 2 2 2 2 2 2 2 2 2 2 2 1 1 2
3 4 4 3 1 1 1 5 4 3 3 4 5 6 6 7 7 5 4 5 4 5 5 4 4 3 3 3 3 2 2 2 2 2 1 1 1 1 2 2 2 2 2 1 0 1 2 1 1
3 5 4 3 1 2 0 4 6 3 3 4 6 6 7 7 6 6 5 5 6 6 5 4 4 4 3 4 4 4 3 2 1 1 0 0 1 1 1 1 2 1 1 1 1 1 1 2 1
4 1 2 2 2 1 1 2 7 2 3 5 6 7 7 7 7 7 7 7 6 6 5 4 4 4 3 4 5 4 3 2 1 1 1 1 1 1 1 1 1 1 1 1 1 1 1 1 1
3 5 4 4 4 1 3 4 7 4 5 4 4 5 6 6 6 6 5 4 4 4 4 4 4 4 4 4 4 4 4 3 3 1 1 0 1 1 1 0 0 1 1 1 1 1 1 1 1
4 5 3 3 2 5 2 3 8 5 4 5 4 4 4 5 5 5 5 5 5 5 5 5 5 4 4 4 4 4 4 4 4 3 2 1 0 0 1 0 0 1 1 1 1 1 1 1 1
3 7 6 3 4 4 1 5 7 4 2 2 1 1 2 3 4 5 6 6 6 6 6 6 6 5 5 5 4 3 3 3 2 3 2 2 2 2 1 1 1 1 1 0 1 1 1 1 1
4 3 5 5 1 2 4 5 6 1 1 2 2 1 1 2 3 4 4 5 5 6 6 7 7 5 5 5 4 3 3 3 3 2 2 2 2 2 1 1 1 1 0 0 0 1 1 1 1
4 6 4 4 3 3 4 4 4 3 3 2 1 1 1 1 1 2 3 4 4 5 4 5 6 6 5 5 4 3 3 3 3 3 2 2 2 2 2 1 1 0 0 0 1 0 1 1 1
2 3 3 3 4 4 3 6 5 5 3 3 3 3 2 2 2 2 2 3 3 3 3 4 4 4 4 4 4 3 3 3 3 2 3 2 2 2 2 2 2 1 1 1 1 1 0 0 1
4 5 6 4 3 3 3 7 3 2 2 2 2 2 1 2 2 1 1 1 2 3 3 3 4 4 4 4 4 4 3 3 3 3 3 2 2 2 2 2 2 2 2 1 2 2 1 1 1
Wind_Direction
1 83 80 58 55 54 65 359 128 64 56 44 63 83 94 85 87 128 189 118 110 117 116 119 101 97 94 90 89 90 87 87 91 88 88 88 86 86 88 88 87 84 84 82 78 73 73 72 69
101 95 62 60 79 75 2 313 118 135 141 136 79 71 74 67 69 108 113 136 123 121 99 107 105 98 94 93 93 92 92 90 92 90 92 91 88 89 88 88 86 84 83 81 77 75 73 72 69
83 60 76 70 89 137 148 159 128 71 105 104 78 61 80 96 117 147 165 140 113 102 86 107 108 101 94 92 90 90 94 93 90 88 91 91 91 91 89 88 86 85 83 79 75 74 73 72 70
77 48 55 70 80 175 180 169 136 101 64 60 94 74 62 38 147 147 131 126 111 94 81 100 107 103 96 92 92 88 95 97 93 90 91 90 89 87 86 84 82 80 78 77 74 71 73 72 69
65 74 64 60 33 345 4 145 117 86 72 62 91 96 53 8 87 111 121 117 114 104 85 92 103 98 95 94 94 90 93 95 94 92 92 90 86 83 82 81 78 76 71 71 71 68 69 68 68
58 64 79 87 24 5 2 22 88 78 86 90 94 104 67 47 100 118 117 109 104 97 83 78 98 95 92 93 91 90 92 90 88 87 88 86 83 78 76 76 75 73 67 63 63 63 64 64 67
94 87 103 121 86 23 21 67 102 103 96 113 121 109 95 96 119 117 105 96 83 77 75 58 57 71 82 86 87 86 86 83 83 83 80 75 74 76 73 66 68 71 68 63 60 60 62 63 65
112 97 81 83 113 59 347 64 73 92 92 88 104 132 175 180 128 102 89 81 76 69 69 67 57 54 52 49 74 82 81 77 73 72 71 66 59 55 57 52 53 59 63 61 58 59 58 58 57
86 78 112 180 158 166 106 84 45 61 86 65 63 125 151 130 115 100 87 71 68 76 59 65 64 54 51 50 54 61 68 62 58 52 55 50 37 33 36 43 49 56 60 59 57 56 55 54 51
82 111 188 190 166 146 111 104 120 84 71 60 56 63 101 117 124 125 127 135 140 138 84 65 67 66 57 53 50 41 47 47 49 46 42 39 37 32 35 37 46 49 51 50 49 49 51 49 40
106 148 165 131 141 128 119 98 83 117 114 200 177 144 130 127 132 140 146 148 164 158 106 92 89 75 73 57 60 48 43 46 44 46 44 45 41 34 32 31 29 32 38 35 37 39 39 44 42
104 130 147 147 130 120 137 130 100 131 211 191 156 143 139 143 158 166 163 159 143 125 130 103 119 102 94 85 74 70 58 54 48 42 51 60 52 42 33 36 28 32 31 31 33 40 44 46 44
88 93 100 128 106 116 107 116 131 248 56 99 111 119 139 154 165 164 153 144 137 150 170 158 122 123 116 96 83 83 71 67 57 49 53 73 75 60 48 41 37 35 37 39 37 37 43 47 44
143 100 66 72 98 98 111 77 87 263 114 111 122 141 155 162 160 139 142 149 162 179 182 168 139 140 121 120 118 105 90 74 61 53 56 79 85 81 70 55 44 35 35 42 51 48 43 43 47
93 72 26 12 101 148 110 31 279 216 127 131 148 162 164 171 161 173 178 171 177 180 172 162 158 136 128 141 137 121 112 97 79 59 57 73 85 89 84 72 55 32 34 49 53 47 43 45 45
67 63 18 311 75 130 121 255 282 159 137 148 166 172 175 189 191 197 184 170 165 161 158 166 152 132 143 138 122 102 101 104 95 82 73 80 92 96 86 77 56 30 42 53 60 48 44 36 35
42 78 256 305 327 114 129 234 281 160 152 166 182 187 191 201 217 213 189 175 164 167 164 155 130 134 137 124 110 97 92 89 87 89 93 100 103 104 101 87 59 47 55 53 58 52 53 46 32
206 186 226 251 256 121 165 243 279 194 172 189 199 199 201 209 223 214 193 180 167 161 153 149 131 124 114 95 85 77 68 61 65 75 69 96 108 111 108 99 75 65 65 52 56 63 48 49 32
163 171 233 252 225 160 212 249 265 214 201 212 213 209 211 224 229 196 186 174 156 147 144 144 141 133 120 103 109 112 102 66 55 62 68 82 96 110 114 104 89 78 79 71 70 72 57 36 21
164 183 251 287 225 171 237 268 266 215 209 211 211 213 213 217 217 195 179 172 170 168 166 157 158 161 164 151 135 129 127 115 105 55 62 76 99 117 128 127 123 110 95 69 59 69 67 35 33
204 200 220 232 345 36 359 308 284 262 233 228 220 216 213 205 205 201 189 190 178 179 177 172 175 173 169 144 111 87 65 49 40 32 29 28 87 109 124 138 130 121 116 121 95 87 95 81 19
241 224 203 195 136 279 136 291 287 267 275 244 232 221 218 212 201 196 192 192 194 196 184 174 173 166 156 147 143 142 140 150 192 195 305 354 76 91 106 118 124 125 126 135 163 109 113 115 76
217 171 146 156 155 296 288 221 283 302 272 258 241 226 221 208 195 194 197 198 196 187 180 177 164 158 151 156 159 155 145 149 125 98 76 28 13 45 89 134 141 148 157 163 159 115 122 130 144
134 71 54 52 77 274 232 191 276 246 235 260 253 233 219 205 194 195 195 184 179 169 171 171 162 163 162 161 161 162 157 152 144 147 148 11 347 359 18 109 160 187 187 193 193 166 156 153 145
95 89 26 356 8 254 238 200 250 250 233 231 244 243 218 195 190 187 183 182 181 176 175 175 170 172 170 169 175 177 171 169 174 179 183 179 191 282 281 269 225 231 223 202 174 153 189 176 168
172 145 162 205 227 274 275 232 254 263 262 252 235 217 176 180 189 193 197 191 189 186 180 177 180 181 176 179 185 180 177 174 183 185 188 195 199 222 231 227 246 252 243 215 178 176 212 189 203
143 173 164 137 187 264 272 280 299 301 344 15 29 61 156 191 198 203 200 189 187 189 190 188 184 184 185 186 181 175 180 180 185 187 191 203 207 211 191 178 193 256 238 204 155 227 228 187 209
142 144 113 131 177 249 281 274 254 262 259 283 304 276 253 219 215 212 199 193 192 193 193 187 185 189 187 183 185 185 194 196 186 174 187 202 206 202 171 172 187 208 244 200 134 318 282 193 223
107 117 123 140 169 170 253 271 229 222 221 225 244 243 224 208 208 217 208 190 182 175 173 181 191 187 183 184 186 185 191 187 175 181 197 203 202 189 185 190 193 196 209 198 159 234 267 230 262
181 172 152 163 218 184 193 267 289 243 245 223 249 261 229 200 180 179 163 139 153 170 177 185 192 192 195 187 178 183 180 177 188 200 210 204 200 201 200 196 200 208 209 200 196 221 231 216 239